| time (UTC) | temp F | wind direction | speed MPH | gust MPH | rain 1hr in | rain 24hr in | rain mn in | humidity % | barometer mb |
| 20260507051043 | 44 | 212 | 4.0 | 9.0 | 0.00 | 1.22 | 0.00 | 86 | 1007.3 |
| 20260507050048 | 44 | 194 | 5.0 | 7.0 | 0.00 | 1.22 | 0.00 | 86 | 1007.4 |
| 20260507045025 | 45 | 244 | 3.0 | 8.0 | 0.00 | 1.22 | 0.00 | 86 | 1007.6 |
| 20260507044033 | 45 | 172 | 4.0 | 9.0 | 0.00 | 1.22 | 0.00 | 86 | 1007.8 |
| 20260507043034 | 45 | 218 | 5.0 | 11.0 | 0.00 | 1.22 | 0.00 | 86 | 1007.8 |
| 20260507042045 | 45 | 292 | 6.0 | 10.0 | 0.00 | 1.22 | 0.00 | 86 | 1008.0 |
| 20260507041026 | 45 | 215 | 6.0 | 10.0 | 0.00 | 1.22 | 0.00 | 86 | 1008.0 |
| 20260507040055 | 45 | 250 | 3.0 | 12.0 | 0.00 | 1.22 | 0.24 | 86 | 1008.1 |
| 20260507035045 | 45 | 258 | 5.0 | 8.0 | 0.00 | 1.22 | 0.24 | 86 | 1008.1 |
| 20260507034026 | 45 | 237 | 4.0 | 8.0 | 0.00 | 1.22 | 0.24 | 86 | 1008.1 |
| 20260507033036 | 45 | 223 | 6.0 | 10.0 | 0.00 | 1.22 | 0.24 | 86 | 1008.3 |
| 20260507032036 | 45 | 207 | 4.0 | 6.0 | 0.00 | 1.22 | 0.24 | 85 | 1008.4 |
| 20260507031047 | 45 | 223 | 4.0 | 7.0 | 0.00 | 1.22 | 0.24 | 85 | 1008.3 |
| 20260507030052 | 45 | 213 | 2.0 | 8.0 | 0.00 | 1.22 | 0.24 | 84 | 1008.4 |
| 20260507025035 | 45 | 244 | 5.0 | 8.0 | 0.00 | 1.22 | 0.24 | 84 | 1008.3 |
| 20260507024044 | 45 | 251 | 6.0 | 9.0 | 0.00 | 1.22 | 0.24 | 84 | 1008.4 |
| 20260507023042 | 45 | 204 | 3.0 | 8.0 | 0.00 | 1.22 | 0.24 | 83 | 1008.5 |
| 20260507022052 | 46 | 200 | 3.0 | 8.0 | 0.00 | 1.22 | 0.24 | 83 | 1008.5 |
| 20260507021033 | 46 | 221 | 3.0 | 9.0 | 0.00 | 1.22 | 0.24 | 82 | 1008.6 |
| 20260507020044 | 46 | 229 | 6.0 | 9.0 | 0.00 | 1.22 | 0.24 | 81 | 1008.6 |
| 20260507015025 | 46 | 239 | 5.0 | 10.0 | 0.00 | 1.22 | 0.24 | 81 | 1008.8 |
| 20260507014051 | 46 | 216 | 5.0 | 10.0 | 0.00 | 1.22 | 0.24 | 81 | 1008.7 |
| 20260507013032 | 46 | 240 | 4.0 | 9.0 | 0.00 | 1.22 | 0.24 | 80 | 1008.9 |
| 20260507012042 | 46 | 215 | 4.0 | 9.0 | 0.00 | 1.22 | 0.24 | 80 | 1008.8 |
| 20260507011043 | 46 | 190 | 3.0 | 9.0 | 0.00 | 1.22 | 0.24 | 80 | 1008.7 |
| 20260507010050 | 46 | 179 | 3.0 | 9.0 | 0.00 | 1.22 | 0.24 | 80 | 1008.8 |
| 20260507005030 | 46 | 197 | 4.0 | 8.0 | 0.00 | 1.22 | 0.24 | 79 | 1008.5 |
| 20260507004038 | 46 | 200 | 5.0 | 9.0 | 0.00 | 1.22 | 0.24 | 78 | 1008.3 |
| 20260507003033 | 46 | 190 | 4.0 | 11.0 | 0.00 | 1.22 | 0.24 | 78 | 1008.3 |
| 20260507002041 | 46 | 190 | 4.0 | 9.0 | 0.00 | 1.22 | 0.24 | 78 | 1008.3 |
| 20260507001042 | 47 | 193 | 2.0 | 5.0 | 0.00 | 1.22 | 0.24 | 78 | 1007.9 |
| 20260507000031 | 47 | 223 | 1.0 | 9.0 | 0.00 | 1.22 | 0.24 | 77 | 1007.8 |
| 20260506235031 | 47 | 267 | 5.0 | 9.0 | 0.00 | 1.22 | 0.24 | 78 | 1007.8 |
| 20260506234104 | 47 | 267 | 2.0 | 5.0 | 0.00 | 1.22 | 0.24 | 78 | 1007.9 |
| 20260506233025 | 47 | 185 | 2.0 | 7.0 | 0.00 | 1.22 | 0.24 | 78 | 1007.9 |
| 20260506232052 | 47 | 244 | 3.0 | 7.0 | 0.00 | 1.22 | 0.24 | 79 | 1007.9 |
| 20260506231042 | 47 | 185 | 4.0 | 8.0 | 0.00 | 1.22 | 0.24 | 79 | 1007.7 |
| 20260506230043 | 47 | 200 | 2.0 | 6.0 | 0.00 | 1.22 | 0.24 | 78 | 1007.6 |
| 20260506225028 | 48 | 227 | 5.0 | 7.0 | 0.00 | 1.22 | 0.24 | 77 | 1007.6 |
| 20260506224029 | 47 | 216 | 5.0 | 7.0 | 0.00 | 1.22 | 0.24 | 74 | 1007.8 |
| 20260506223100 | 48 | 238 | 2.0 | 6.0 | 0.00 | 1.22 | 0.24 | 75 | 1007.5 |
| 20260506222044 | 48 | 212 | 4.0 | 7.0 | 0.00 | 1.22 | 0.24 | 75 | 1007.8 |
| 20260506221025 | 48 | 275 | 5.0 | 8.0 | 0.00 | 1.22 | 0.24 | 75 | 1007.8 |
| 20260506220035 | 48 | 272 | 3.0 | 5.0 | 0.00 | 1.22 | 0.24 | 74 | 1007.7 |
| 20260506215040 | 48 | 279 | 2.0 | 4.0 | 0.00 | 1.22 | 0.24 | 76 | 1007.9 |
| 20260506214050 | 47 | 202 | 2.0 | 6.0 | 0.00 | 1.22 | 0.24 | 75 | 1007.8 |
| 20260506213029 | 47 | 243 | 4.0 | 8.0 | 0.00 | 1.22 | 0.24 | 75 | 1007.8 |
| 20260506212036 | 47 | 286 | 3.0 | 7.0 | 0.00 | 1.22 | 0.24 | 77 | 1007.7 |
| 20260506211031 | 46 | 289 | 1.0 | 7.0 | 0.00 | 1.22 | 0.24 | 77 | 1007.8 |
| 20260506210041 | 46 | 238 | 3.0 | 8.0 | 0.00 | 1.22 | 0.24 | 76 | 1007.8 |
| 20260506205040 | 46 | 254 | 3.0 | 6.0 | 0.00 | 1.22 | 0.24 | 76 | 1008.0 |
| 20260506204030 | 46 | 219 | 3.0 | 7.0 | 0.00 | 1.22 | 0.24 | 78 | 1007.9 |
| 20260506203030 | 46 | 261 | 4.0 | 7.0 | 0.00 | 1.22 | 0.24 | 78 | 1008.0 |
| 20260506202038 | 46 | 277 | 4.0 | 6.0 | 0.04 | 1.22 | 0.24 | 79 | 1008.1 |
| 20260506201038 | 46 | 335 | 3.0 | 7.0 | 0.04 | 1.22 | 0.24 | 81 | 1008.2 |
| 20260506200028 | 46 | 292 | 4.0 | 7.0 | 0.04 | 1.22 | 0.24 | 82 | 1008.3 |
| 20260506195024 | 45 | 256 | 4.0 | 8.0 | 0.04 | 1.22 | 0.24 | 83 | 1008.2 |
| 20260506194034 | 45 | 267 | 4.0 | 7.0 | 0.04 | 1.22 | 0.24 | 84 | 1008.4 |
| 20260506193035 | 45 | 289 | 4.0 | 8.0 | 0.04 | 1.22 | 0.24 | 83 | 1008.3 |
| 20260506192040 | 45 | 294 | 5.0 | 7.0 | 0.00 | 1.18 | 0.24 | 83 | 1008.4 |
| 20260506191050 | 46 | 284 | 4.0 | 6.0 | 0.00 | 1.18 | 0.24 | 82 | 1008.4 |
| 20260506190051 | 45 | 271 | 2.0 | 4.0 | 0.00 | 1.18 | 0.24 | 81 | 1008.4 |
| 20260506185034 | 45 | 271 | 4.0 | 7.0 | 0.00 | 1.18 | 0.24 | 82 | 1008.5 |
| 20260506184034 | 46 | 264 | 2.0 | 5.0 | 0.00 | 1.18 | 0.24 | 81 | 1008.4 |
| 20260506183044 | 46 | 165 | 2.0 | 3.0 | 0.00 | 1.18 | 0.24 | 83 | 1008.3 |
| 20260506182044 | 46 | 161 | 3.0 | 5.0 | 0.00 | 1.18 | 0.24 | 83 | 1008.2 |
| 20260506181034 | 46 | 202 | 4.0 | 7.0 | 0.00 | 1.18 | 0.24 | 83 | 1008.3 |
| 20260506180106 | 47 | 120 | 1.0 | 3.0 | 0.00 | 1.18 | 0.24 | 85 | 1008.4 |
| 20260506175026 | 48 | 165 | 2.0 | 5.0 | 0.00 | 1.18 | 0.24 | 87 | 1008.5 |
| 20260506174051 | 47 | 159 | 1.0 | 2.0 | 0.00 | 1.18 | 0.24 | 89 | 1008.6 |
| 20260506173031 | 46 | 151 | 1.0 | 3.0 | 0.00 | 1.18 | 0.24 | 88 | 1008.9 |
| 20260506172041 | 45 | 181 | 3.0 | 4.0 | 0.00 | 1.18 | 0.24 | 88 | 1009.1 |
| 20260506171113 | 45 | 171 | 0.0 | 2.0 | 0.00 | 1.18 | 0.24 | 89 | 1009.2 |
| 20260506170032 | 44 | 171 | 1.0 | 4.0 | 0.00 | 1.18 | 0.24 | 89 | 1009.3 |
| 20260506165103 | 44 | 249 | 0.0 | 6.0 | 0.00 | 1.18 | 0.24 | 89 | 1009.5 |
| 20260506164038 | 44 | 156 | 1.0 | 5.0 | 0.04 | 1.18 | 0.24 | 89 | 1009.5 |
| 20260506163049 | 45 | 175 | 1.0 | 3.0 | 0.04 | 1.18 | 0.24 | 91 | 1009.5 |
| 20260506162034 | 43 | 157 | 1.0 | 4.0 | 0.08 | 1.18 | 0.24 | 89 | 1009.7 |
| 20260506161044 | 44 | 168 | 1.0 | 3.0 | 0.12 | 1.18 | 0.24 | 91 | 1009.9 |
| 20260506160045 | 43 | 171 | 1.0 | 5.0 | 0.16 | 1.18 | 0.24 | 89 | 1009.8 |
| 20260506155033 | 42 | 161 | 1.0 | 7.0 | 0.16 | 1.18 | 0.24 | 90 | 1010.1 |
| 20260506154033 | 42 | 190 | 4.0 | 8.0 | 0.16 | 1.14 | 0.23 | 89 | 1010.1 |
| 20260506153045 | 42 | 190 | 4.0 | 8.0 | 0.20 | 1.14 | 0.23 | 89 | 1010.1 |
| 20260506152041 | 42 | 180 | 4.0 | 6.0 | 0.20 | 1.10 | 0.22 | 89 | 1010.1 |
| 20260506151031 | 42 | 182 | 4.0 | 8.0 | 0.20 | 1.06 | 0.21 | 89 | 1010.3 |
| 20260506150032 | 42 | 244 | 3.0 | 7.0 | 0.24 | 1.02 | 0.20 | 89 | 1010.2 |
| 20260506145043 | 42 | 172 | 4.0 | 8.0 | 0.28 | 1.02 | 0.20 | 89 | 1010.3 |
| 20260506144025 | 42 | 191 | 3.0 | 7.0 | 0.28 | 0.98 | 0.20 | 89 | 1010.1 |
| 20260506143055 | 43 | 217 | 3.0 | 6.0 | 0.28 | 0.94 | 0.19 | 89 | 1010.0 |
| 20260506142046 | 42 | 225 | 5.0 | 9.0 | 0.28 | 0.91 | 0.18 | 89 | 1009.9 |
| 20260506141105 | 43 | 208 | 2.0 | 8.0 | 0.28 | 0.87 | 0.17 | 89 | 1010.1 |
| 20260506140029 | 42 | 225 | 4.0 | 8.0 | 0.24 | 0.83 | 0.16 | 89 | 1010.0 |
| 20260506135031 | 43 | 184 | 4.0 | 7.0 | 0.24 | 0.79 | 0.15 | 88 | 1010.2 |
| 20260506134042 | 43 | 185 | 5.0 | 9.0 | 0.20 | 0.75 | 0.14 | 88 | 1009.9 |
| 20260506133024 | 43 | 198 | 3.0 | 8.0 | 0.20 | 0.71 | 0.13 | 88 | 1009.9 |
| 20260506132034 | 43 | 246 | 3.0 | 8.0 | 0.24 | 0.67 | 0.13 | 88 | 1009.8 |
| 20260506131036 | 43 | 186 | 4.0 | 8.0 | 0.24 | 0.63 | 0.12 | 87 | 1009.9 |
| 20260506130042 | 43 | 195 | 5.0 | 8.0 | 0.20 | 0.59 | 0.11 | 87 | 1009.6 |
| 20260506125040 | 43 | 189 | 3.0 | 7.0 | 0.20 | 0.55 | 0.10 | 87 | 1009.6 |
| 20260506124051 | 43 | 211 | 5.0 | 7.0 | 0.24 | 0.55 | 0.10 | 87 | 1009.8 |
| 20260506123041 | 43 | 148 | 2.0 | 7.0 | 0.24 | 0.51 | 0.09 | 86 | 1009.6 |
| 20260506122041 | 44 | 178 | 3.0 | 9.0 | 0.16 | 0.43 | 0.08 | 86 | 1009.5 |
| 20260506121050 | 44 | 182 | 3.0 | 6.0 | 0.16 | 0.39 | 0.07 | 86 | 1009.8 |
| 20260506120054 | 44 | 194 | 4.0 | 5.0 | 0.20 | 0.47 | 0.07 | 86 | 1009.9 |
| 20260506115034 | 44 | 228 | 3.0 | 6.0 | 0.20 | 0.43 | 0.06 | 85 | 1010.0 |
| 20260506114044 | 44 | 234 | 5.0 | 9.0 | 0.20 | 0.39 | 0.06 | 86 | 1010.1 |
| 20260506113025 | 44 | 246 | 2.0 | 6.0 | 0.16 | 0.35 | 0.05 | 86 | 1010.2 |
| 20260506112035 | 44 | 229 | 4.0 | 8.0 | 0.20 | 0.35 | 0.05 | 85 | 1010.2 |
| 20260506111035 | 45 | 253 | 4.0 | 10.0 | 0.16 | 0.31 | 0.04 | 85 | 1010.0 |
| 20260506110045 | 45 | 267 | 3.0 | 10.0 | 0.12 | 0.28 | 0.03 | 84 | 1009.9 |
| 20260506105041 | 45 | 232 | 5.0 | 10.0 | 0.12 | 0.24 | 0.02 | 84 | 1009.9 |
| 20260506104031 | 46 | 253 | 4.0 | 10.0 | 0.08 | 0.20 | 0.02 | 85 | 1009.6 |
| 20260506103030 | 46 | 263 | 4.0 | 8.0 | 0.08 | 0.20 | 0.02 | 85 | 1009.4 |
| 20260506102041 | 46 | 188 | 3.0 | 8.0 | 0.04 | 0.16 | 0.01 | 85 | 1009.2 |
| 20260506101040 | 46 | 229 | 3.0 | 6.0 | 0.04 | 0.16 | 0.01 | 85 | 1009.2 |
| 20260506100030 | 47 | 225 | 4.0 | 10.0 | 0.04 | 0.16 | 0.01 | 84 | 1009.3 |
| 20260506095031 | 47 | 248 | 6.0 | 12.0 | 0.00 | 0.12 | 0.00 | 83 | 1009.2 |
| 20260506094100 | 47 | 229 | 5.0 | 14.0 | 0.00 | 0.12 | 0.00 | 81 | 1009.3 |
| 20260506093050 | 48 | 223 | 6.0 | 13.0 | 0.00 | 0.12 | 0.00 | 80 | 1009.3 |
| 20260506092029 | 48 | 242 | 6.0 | 9.0 | 0.00 | 0.12 | 0.00 | 80 | 1009.1 |
| 20260506091058 | 48 | 196 | 5.0 | 10.0 | 0.00 | 0.12 | 0.00 | 80 | 1009.0 |
| 20260506090049 | 48 | 269 | 5.0 | 8.0 | 0.00 | 0.12 | 0.00 | 80 | 1009.0 |
| 20260506085033 | 48 | 223 | 4.0 | 14.0 | 0.00 | 0.12 | 0.00 | 80 | 1008.8 |
| 20260506084031 | 48 | 271 | 4.0 | 14.0 | 0.00 | 0.12 | 0.00 | 80 | 1009.0 |
| 20260506083041 | 48 | 269 | 6.0 | 12.0 | 0.00 | 0.12 | 0.00 | 79 | 1009.1 |
| 20260506082050 | 48 | 214 | 8.0 | 15.0 | 0.00 | 0.12 | 0.00 | 79 | 1009.3 |
| 20260506081054 | 48 | 233 | 4.0 | 11.0 | 0.00 | 0.12 | 0.00 | 79 | 1009.1 |
| 20260506080104 | 48 | 229 | 5.0 | 10.0 | 0.00 | 0.12 | 0.00 | 79 | 1008.9 |
| 20260506073041 | 49 | 228 | 7.0 | 14.0 | 0.00 | 0.12 | 0.00 | 79 | 1009.1 |
| 20260506072041 | 49 | 251 | 6.0 | 18.0 | 0.00 | 0.12 | 0.00 | 79 | 1008.9 |
| 20260506071050 | 49 | 231 | 8.0 | 16.0 | 0.00 | 0.12 | 0.00 | 79 | 1008.9 |
| 20260506062057 | 49 | 240 | 11.0 | 18.0 | 0.00 | 0.12 | 0.00 | 79 | 1008.8 |
| 20260506061038 | 49 | 186 | 7.0 | 16.0 | 0.00 | 0.12 | 0.00 | 80 | 1008.6 |